[[{"header":{"parameterUnit":"m.s-1","parameterCategory":1,"la1":30.2991,"la2":30.254,"lo1":-89.0895,"lo2":-89.0444,"dy":0.0017,"dx":0.0017,"nx":28,"ny":28,"refTime":"2024-06-29T09:00:00:Z","depth":0,"parameterNumber":2,"parameterNumberName":"U-component_of_WINDS"},"data":[0,0,0,0,0,0,0,0,0,0,0,0,0,0,0,0,0,0,0,0,0,0,0,0,0,0,0,0,0,0,0,0,0,0,0,0,0,0,0,0,0,0,0,0,0,0,0,0,0,0,0,0,0,0,0,0,0,0,2.0377,2.0378,0,2.044,2.044,2.0441,2.0419,2.0418,2.0417,2.0415,2.0479,2.0482,2.0485,0,0,0,0,0,0,0,0,0,0,0,0,0,2.0236,2.0239,2.0377,2.0378,2.0378,2.0439,2.044,2.0441,2.042,2.0418,2.0416,2.0415,2.0478,2.0482,2.0485,0,0,0,0,0,0,0,0,0,0,0,0,0,2.0298,2.024,2.0377,2.0375,2.0375,2.0439,2.044,2.0441,2.042,2.0418,2.0416,2.0414,2.0477,2.0481,2.0486,2.0555,0,0,2.0499,2.0501,0,0,0,0,0,0,0,0,2.0294,2.0303,2.0374,2.0375,2.0376,2.042,2.0414,2.0479,2.042,2.0403,2.0415,2.0413,2.0461,2.0467,2.0483,2.0558,2.056,2.05,2.0502,2.0504,2.0506,0,0,0,0,0,0,0,2.029,2.03,2.0402,2.0375,2.0376,2.037,2.0377,2.0426,2.0443,2.0404,2.0403,2.0411,2.0461,2.0479,2.0484,2.0561,2.05,2.0504,2.0506,2.0508,2.0693,2.0695,0,0,0,0,0,0,2.0286,2.0297,2.04,2.0403,2.0329,2.0375,2.0382,2.0408,2.0442,2.0445,2.0412,2.0409,2.0472,2.0479,2.0486,2.0567,2.0504,2.0508,2.0511,2.0691,2.0694,2.0696,0,0,0,0,0,0,2.0283,2.0295,2.0397,2.035,2.0362,2.0379,2.0408,2.041,2.0428,2.0448,2.0451,2.0428,2.0471,2.048,2.0537,2.0569,2.0511,2.0515,2.0688,2.0692,2.0695,2.0731,0,0,0,0,0,0,2.0279,2.0294,2.0321,2.0351,2.0365,2.0448,2.041,2.0413,2.0435,2.0432,2.0463,2.0466,2.047,2.0531,2.0542,2.0574,2.0518,2.0685,2.069,2.0694,2.0727,2.0735,2.0742,0,0,0,0,0,2.0274,2.0329,2.0323,2.0335,2.0399,2.045,2.0458,2.046,2.0438,2.0465,2.0478,2.0465,2.0564,2.0537,2.0549,2.0583,2.0683,2.0689,2.0693,2.0724,2.0733,2.0742,0,0,0,0,0,0,2.0303,2.0333,2.0326,2.0393,2.0419,2.0446,2.048,2.0471,2.0504,2.05,2.0502,2.0509,2.0567,2.0581,2.055,2.0651,2.062,2.0628,2.0639,2.0649,2.0656,2.0651,2.0522,0,0,0,0,0,2.0318,2.0357,2.0381,2.0437,2.045,2.0463,2.0485,2.0485,2.0512,2.0522,2.054,2.0566,2.0602,2.0627,2.0662,2.0729,2.0734,2.0759,2.0766,2.0773,2.0779,2.0813,2.0823,2.0712,2.0712,2.0712,0,0,2.0348,2.0369,2.0393,2.0443,2.0463,2.0503,2.0472,2.0516,2.0544,2.0529,2.0583,2.0597,2.0626,2.0688,2.0716,2.0702,2.0811,2.0779,2.0784,2.0786,2.0819,2.0829,2.0839,2.0716,2.0715,2.0715,0,0,2.0421,2.0442,2.049,2.0511,2.0541,2.0549,2.0561,2.0589,2.0597,2.0652,2.064,2.0674,2.0738,2.0759,2.0778,2.0858,2.0847,2.0869,2.0908,2.0941,2.095,2.0958,2.0984,2.0994,2.0876,2.0876,2.0876,0,2.0454,2.0514,2.0516,2.056,2.0581,2.0569,2.0617,2.0637,2.0677,2.0692,2.0675,2.0753,2.0773,2.0838,2.0857,2.0874,2.0885,2.0865,2.0949,2.0957,2.0964,2.0989,2.0999,2.0878,2.0878,2.0878,2.0877,0,2.0551,2.0593,2.0628,2.0666,2.0692,2.0738,2.0746,2.0772,2.0769,2.0778,2.0833,2.0855,2.0893,2.0909,2.0908,2.0974,2.0963,2.0948,2.0917,2.0977,2.1,2.101,2.0881,2.0881,2.088,2.0879,0,0,2.0645,2.0684,2.0697,2.0713,2.0745,2.0777,2.0821,2.0858,2.0879,2.0908,2.0943,2.0997,2.0982,2.1003,2.1004,2.1034,2.1092,2.1014,2.1015,2.1026,2.1164,2.1174,2.1185,2.1086,2.1088,2.1089,2.1161,0,2.072,2.0798,2.0801,2.0872,2.0908,2.0897,2.0935,2.0958,2.0968,2.1,2.101,2.1047,2.1026,2.1038,2.1067,2.1079,2.112,2.1074,2.1118,2.1119,2.1109,2.1198,2.1209,2.1275,2.117,2.1172,2.1173,0,2.0818,2.0848,2.0922,2.0947,2.0962,2.0997,2.103,2.1061,2.1087,2.1092,2.1115,2.1111,2.1154,2.1123,2.1183,2.1152,2.117,2.1178,2.1181,2.1184,2.1148,2.1201,2.1297,2.1306,2.1188,2.1187,2.1186,0,2.0875,2.0935,2.0986,2.1001,2.1033,2.1056,2.1071,2.1094,2.1116,2.1145,2.1158,2.1193,2.1211,2.1237,2.1241,2.1219,2.13,2.127,2.1304,2.1304,2.132,2.1319,2.1418,2.1335,2.1335,2.1335,2.1335,0,2.0957,2.1002,2.1013,2.1044,2.1094,2.1096,2.1145,2.1157,2.1178,2.1211,2.1204,2.1235,2.124,2.1271,2.1275,2.1323,2.1332,2.1335,2.1335,2.1335,2.1334,2.1345,2.134,2.1338,2.1337,2.1337,2.1336,0,2.103,2.1039,2.1093,2.1118,2.1125,2.1161,2.1181,2.1211,2.1219,2.1261,2.127,2.1284,2.132,2.1328,2.1372,2.1374,2.143,2.1426,2.1421,2.142,2.1452,2.1448,2.1561,2.1575,2.1485,2.1486,2.1486,0,2.108,2.1114,2.1143,2.1164,2.1179,2.1214,2.1235,2.1239,2.1262,2.1292,2.1318,2.1354,2.1382,2.1441,2.1454,2.1487,2.1483,2.152,2.1488,2.1485,2.1481,2.1478,2.148,2.1526,2.1527,2.1528,2.1528,0,2.1168,2.117,2.1202,2.1235,2.126,2.1287,2.1311,2.1329,2.1336,2.1361,2.1399,2.1421,2.1465,2.15,2.1532,2.1546,2.1538,2.1538,2.1547,2.1546,2.1541,2.1542,2.1435,2.1535,2.1535,2.1534,2.1534,2.1534,2.1229,2.1258,2.1282,2.1317,2.1336,2.1359,2.1387,2.1399,2.143,2.1465,2.1466,2.1506,2.1529,2.1572,2.1587,2.1618,2.1606,2.162,2.1623,2.1626,2.1628,2.1537,2.1624,2.1624,2.1624,2.1624,2.1624,0,2.1315,2.1329,2.1361,2.1395,2.1422,2.1413,2.1439,2.1462,2.1498,2.152,2.1548,2.159,2.1623,2.1639,2.1672,2.1693,2.169,2.1701,2.1699,2.1701,2.1638,2.1625,2.1703,2.1703,2.1703,2.1703,2.1703,2.1703,2.1362,2.141,2.1415,2.1471,2.1486,2.1524,2.154,2.156,2.1578,2.1625,2.1653,2.1662,2.1682,2.1716,2.1745,2.1749,2.176,2.1773,2.1775,2.1714,2.1706,2.1699,2.1687,2.1776,2.1776,2.1836,2.1836,2.1837]},{"header":{"parameterUnit":"m.s-1","parameterCategory":1,"la1":30.2991,"la2":30.254,"lo1":-89.0895,"lo2":-89.0444,"dy":0.0017,"dx":0.0017,"nx":28,"ny":28,"refTime":"2024-06-29T09:00:00:Z","depth":0,"parameterNumber":3,"parameterNumberName":"V-component_of_WINDS"},"data":[0,0,0,0,0,0,0,0,0,0,0,0,0,0,0,0,0,0,0,0,0,0,0,0,0,0,0,0,0,0,0,0,0,0,0,0,0,0,0,0,0,0,0,0,0,0,0,0,0,0,0,0,0,0,0,0,0,0,6.0635,6.0635,0,6.0701,6.0701,6.0702,6.0628,6.0625,6.0623,6.062,6.0683,6.0687,6.0691,0,0,0,0,0,0,0,0,0,0,0,0,0,6.0438,6.0442,6.0634,6.0635,6.0636,6.0701,6.0702,6.0702,6.0629,6.0625,6.0622,6.0619,6.0681,6.0687,6.0692,0,0,0,0,0,0,0,0,0,0,0,0,0,6.0515,6.0443,6.0634,6.0607,6.0605,6.07,6.0702,6.0703,6.0629,6.0625,6.0621,6.0617,6.068,6.0686,6.0692,6.0816,0,0,6.0712,6.0715,0,0,0,0,0,0,0,0,6.0511,6.0523,6.061,6.0609,6.0607,6.0652,6.0655,6.074,6.063,6.062,6.062,6.0615,6.0676,6.0682,6.0704,6.0819,6.0821,6.0713,6.0716,6.0719,6.0721,0,0,0,0,0,0,0,6.0506,6.0519,6.066,6.0612,6.061,6.0589,6.0596,6.0671,6.067,6.0621,6.0615,6.0625,6.0674,6.0698,6.0705,6.0822,6.0712,6.0718,6.0722,6.0725,6.1039,6.1043,0,0,0,0,0,0,6.0504,6.0515,6.0658,6.0662,6.0548,6.0597,6.0604,6.0642,6.0669,6.067,6.0628,6.0621,6.0689,6.0697,6.0706,6.085,6.0719,6.0725,6.0729,6.1034,6.1039,6.1044,0,0,0,0,0,0,6.05,6.0518,6.0656,6.0588,6.0604,6.0604,6.0648,6.0645,6.0669,6.0675,6.0674,6.0653,6.0686,6.0697,6.0789,6.0852,6.0728,6.0734,6.1029,6.1036,6.1042,6.1141,0,0,0,0,0,0,6.0495,6.0517,6.0565,6.0589,6.0608,6.0739,6.0652,6.065,6.0681,6.0672,6.0698,6.0698,6.0683,6.078,6.0795,6.0858,6.0739,6.1023,6.1032,6.104,6.1132,6.115,6.1166,0,0,0,0,0,6.0488,6.059,6.0568,6.0586,6.0669,6.0743,6.0753,6.0735,6.0686,6.0734,6.0737,6.0697,6.0843,6.079,6.0806,6.0872,6.1019,6.1029,6.1039,6.1124,6.1147,6.1165,0,0,0,0,0,0,6.0572,6.0593,6.0569,6.0682,6.0712,6.073,6.079,6.076,6.0803,6.0793,6.0767,6.0774,6.087,6.0881,6.0821,6.0992,6.0922,6.0936,6.0981,6.1003,6.1019,6.1014,6.0744,0,0,0,0,0,6.0604,6.0665,6.0679,6.0777,6.0793,6.079,6.0821,6.0805,6.0834,6.0845,6.0856,6.0884,6.0935,6.097,6.1018,6.1133,6.1136,6.1187,6.1204,6.1218,6.1229,6.1288,6.131,6.1078,6.1077,6.1077,0,0,6.0671,6.0689,6.0729,6.0795,6.0816,6.0876,6.08,6.0869,6.0913,6.0855,6.0942,6.095,6.0979,6.1083,6.1129,6.1094,6.1294,6.123,6.1242,6.1246,6.1301,6.1323,6.1342,6.1084,6.1083,6.1082,0,0,6.0822,6.0844,6.0927,6.0949,6.0982,6.0978,6.0998,6.1022,6.1025,6.1112,6.107,6.1121,6.1211,6.1233,6.1256,6.1414,6.1377,6.143,6.1517,6.1575,6.1593,6.161,6.1663,6.1683,6.1442,6.1442,6.1442,0,6.0899,6.0992,6.0973,6.1044,6.1072,6.1024,6.1106,6.1129,6.1175,6.1195,6.1156,6.1267,6.1283,6.139,6.1428,6.1449,6.1469,6.1426,6.1593,6.1609,6.1623,6.1674,6.1695,6.1448,6.1448,6.1447,6.1446,0,6.1084,6.1148,6.1211,6.1258,6.1294,6.137,6.136,6.1399,6.1379,6.1379,6.1466,6.1484,6.1534,6.1558,6.154,6.1661,6.1639,6.1597,6.1526,6.1652,6.1699,6.1719,6.1457,6.1455,6.1453,6.1451,0,0,6.129,6.1325,6.1348,6.1367,6.1399,6.1447,6.152,6.157,6.1602,6.1636,6.1694,6.1771,6.1732,6.1758,6.1741,6.1792,6.1913,6.1744,6.1744,6.1772,6.2045,6.2074,6.2097,6.189,6.1893,6.1896,6.2041,0,6.144,6.1568,6.1552,6.1673,6.173,6.1685,6.1748,6.1773,6.1775,6.1822,6.1822,6.1876,6.1822,6.1837,6.1886,6.1888,6.1967,6.1877,6.1941,6.1944,6.1933,6.2123,6.2155,6.2291,6.206,6.2063,6.2065,0,6.1632,6.1673,6.18,6.1821,6.1844,6.1902,6.1944,6.1991,6.2018,6.2015,6.2044,6.2017,6.2087,6.2017,6.2112,6.2051,6.2076,6.2081,6.2086,6.2089,6.2011,6.2129,6.2334,6.2354,6.2095,6.2092,6.209,0,6.1766,6.1853,6.1939,6.1958,6.1986,6.2026,6.2039,6.2062,6.2092,6.2129,6.2148,6.2192,6.2216,6.225,6.2235,6.2186,6.2332,6.2261,6.2329,6.233,6.236,6.2358,6.257,6.2381,6.238,6.238,6.238,0,6.1934,6.2013,6.2,6.2053,6.2139,6.2119,6.2205,6.2212,6.2232,6.2284,6.2247,6.2296,6.2275,6.2322,6.2311,6.2389,6.2401,6.2399,6.2394,6.2401,6.2401,6.2415,6.2405,6.2385,6.2384,6.2383,6.2382,0,6.2098,6.2093,6.2184,6.2202,6.2209,6.2271,6.2286,6.2334,6.2333,6.2399,6.2413,6.241,6.2463,6.2452,6.251,6.2503,6.26,6.2586,6.2592,6.2587,6.2655,6.2648,6.2882,6.2911,6.2705,6.2707,6.2709,0,6.2204,6.2264,6.2289,6.2322,6.2338,6.2391,6.2422,6.2404,6.2437,6.247,6.2514,6.2564,6.2603,6.269,6.2691,6.2735,6.2719,6.2798,6.2726,6.2729,6.2718,6.2713,6.2718,6.2812,6.2815,6.2817,6.2818,0,6.2393,6.2387,6.2433,6.2478,6.2516,6.255,6.2581,6.2609,6.2594,6.2632,6.2686,6.2717,6.2776,6.2825,6.2866,6.2876,6.2844,6.2841,6.2859,6.2865,6.2865,6.2863,6.2629,6.2836,6.2834,6.2832,6.2832,6.2831,6.2529,6.2579,6.2604,6.2656,6.2677,6.2707,6.2752,6.2757,6.2802,6.285,6.2836,6.2897,6.292,6.2971,6.2986,6.3032,6.3002,6.3029,6.3035,6.3041,6.3048,6.286,6.304,6.3039,6.3039,6.3038,6.3038,0,6.2713,6.2727,6.2776,6.2819,6.286,6.2828,6.2859,6.2894,6.2949,6.2974,6.3013,6.3074,6.3121,6.3126,6.317,6.3206,6.3192,6.3218,6.3214,6.3216,6.3074,6.3053,6.3228,6.3228,6.3228,6.3228,6.3228,6.3228,6.2814,6.2896,6.2893,6.2984,6.2997,6.3057,6.3078,6.3103,6.3122,6.3193,6.3232,6.3236,6.3252,6.3296,6.3337,6.3337,6.3354,6.3385,6.3379,6.3246,6.3227,6.3208,6.3189,6.339,6.339,6.3518,6.3519,6.352]}]]